Location: Bishop�s Knoyle
(51.0728°N, 2.1714°W)
Time: 12:50:49
(UTC+00:00)

NOSS 3-4 (C) - Pass Details

Date: 22 January 2021
Orbit: 878 x 1335 km, 63.4° (Epoch: 16 February)

Event Time Altitude Azimuth Distance (km) Brightness Sun altitude
Rises 20:07:17 0° 297° (WNW) 3,618 7.5 -31.7°
Reaches altitude 10° 20:10:07 10° 309° (NW) 2,730 6.5 -32.2°
Enters shadow 20:15:14 29° 2° (N) 1,802 4.9 -32.9°
